Hourly Weather Sahnovschina

Today, 10 July, Friday

Time Temperature Precipitation Wind Pressure Humidity
00:00 +15°C° 0 mm 2 mps 749 mmHg 90%
01:00 +15°C° 0 mm 2 mps 750 mmHg 91%
02:00 +14°C° 0 mm 2 mps 750 mmHg 91%
03:00 +14°C° 0 mm 2 mps 750 mmHg 90%
04:00 +15°C° 0 mm 1 mps 750 mmHg 89%
05:00 +15°C° 0 mm 1 mps 750 mmHg 88%
06:00 +18°C° 0 mm 1 mps 750 mmHg 80%
07:00 +18°C° 0 mm 2 mps 751 mmHg 73%
08:00 +20°C° 0 mm 2 mps 751 mmHg 65%
09:00 +21°C° 0 mm 2 mps 751 mmHg 60%
10:00 +23°C° 0 mm 2 mps 751 mmHg 55%
11:00 +24°C° 0 mm 2 mps 751 mmHg 49%
12:00 +25°C° 0 mm 2 mps 751 mmHg 48%
13:00 +26°C° 0 mm 2 mps 750 mmHg 46%
14:00 +26°C° 0 mm 2 mps 750 mmHg 44%
15:00 +26°C° 0 mm 2 mps 750 mmHg 45%
16:00 +26°C° 0 mm 2 mps 750 mmHg 46%
17:00 +26°C° 0 mm 2 mps 750 mmHg 48%
18:00 +24°C° 0 mm 2 mps 750 mmHg 53%
19:00 +21°C° 0 mm 2 mps 750 mmHg 58%
20:00 +19°C° 0 mm 2 mps 750 mmHg 64%
21:00 +18°C° 0 mm 2 mps 751 mmHg 66%
22:00 +18°C° 0 mm 2 mps 751 mmHg 67%
23:00 +17°C° 0 mm 2 mps 751 mmHg 69%

Tomorrow, 11 July, Saturday

Time Temperature Precipitation Wind Pressure Humidity
00:00 +17°C° 0 mm 2 mps 751 mmHg 71%
01:00 +16°C° 0 mm 2 mps 751 mmHg 72%
02:00 +16°C° 0 mm 2 mps 751 mmHg 73%
03:00 +16°C° 0 mm 2 mps 751 mmHg 74%
04:00 +16°C° 0 mm 2 mps 751 mmHg 75%
05:00 +16°C° 0 mm 2 mps 751 mmHg 76%
06:00 +18°C° 0 mm 2 mps 751 mmHg 70%
07:00 +20°C° 0 mm 2 mps 751 mmHg 64%
08:00 +23°C° 0 mm 2 mps 751 mmHg 58%
09:00 +24°C° 0 mm 2 mps 751 mmHg 54%
10:00 +26°C° 0 mm 3 mps 751 mmHg 49%
11:00 +27°C° 0 mm 3 mps 751 mmHg 45%
12:00 +27°C° 0 mm 3 mps 751 mmHg 43%
13:00 +28°C° 0 mm 3 mps 750 mmHg 42%
14:00 +28°C° 0 mm 3 mps 750 mmHg 40%
15:00 +28°C° 0 mm 3 mps 749 mmHg 42%
16:00 +28°C° 0 mm 3 mps 749 mmHg 45%
17:00 +28°C° 0 mm 3 mps 749 mmHg 47%
18:00 +26°C° 0 mm 3 mps 749 mmHg 53%
19:00 +24°C° 0 mm 3 mps 749 mmHg 59%
20:00 +21°C° 0 mm 3 mps 749 mmHg 65%
21:00 +20°C° 0 mm 3 mps 748 mmHg 68%
22:00 +19°C° 0 mm 3 mps 748 mmHg 71%
23:00 +18°C° 0 mm 3 mps 748 mmHg 74%

Day after tomorrow, 12 July, Sunday

Time Temperature Precipitation Wind Pressure Humidity
00:00 +18°C° 0 mm 3 mps 748 mmHg 76%
01:00 +17°C° 0 mm 3 mps 748 mmHg 78%
02:00 +17°C° 0 mm 3 mps 748 mmHg 80%
03:00 +17°C° 0 mm 3 mps 747 mmHg 81%
04:00 +17°C° 0 mm 3 mps 747 mmHg 82%
05:00 +17°C° 0 mm 3 mps 747 mmHg 82%
06:00 +19°C° 0 mm 3 mps 747 mmHg 75%
07:00 +21°C° 0 mm 4 mps 747 mmHg 69%
08:00 +23°C° 0 mm 4 mps 746 mmHg 62%
09:00 +26°C° 0 mm 4 mps 746 mmHg 57%
10:00 +27°C° 0 mm 4 mps 746 mmHg 53%
11:00 +29°C° 0 mm 4 mps 746 mmHg 48%
12:00 +29°C° 0 mm 3 mps 745 mmHg 47%
13:00 +30°C° 0 mm 3 mps 745 mmHg 46%
14:00 +31°C° 0 mm 3 mps 745 mmHg 45%
15:00 +31°C° 0 mm 3 mps 744 mmHg 48%
16:00 +30°C° 0 mm 3 mps 743 mmHg 51%
17:00 +30°C° 0 mm 3 mps 743 mmHg 53%
18:00 +28°C° 0.2 mm 3 mps 743 mmHg 60%
19:00 +26°C° 0.2 mm 3 mps 743 mmHg 67%
20:00 +25°C° 0.2 mm 3 mps 743 mmHg 74%
21:00 +22°C° 2.9 mm 3 mps 743 mmHg 80%
22:00 +21°C° 2.9 mm 2 mps 742 mmHg 87%
23:00 +20°C° 2.9 mm 2 mps 742 mmHg 94%

13 July, Monday

Time Temperature Precipitation Wind Pressure Humidity
00:00 +21°C° 0.6 mm 2 mps 742 mmHg 92%
01:00 +21°C° 0.6 mm 2 mps 741 mmHg 89%
02:00 +21°C° 0.6 mm 2 mps 741 mmHg 86%
03:00 +21°C° 0.1 mm 2 mps 740 mmHg 89%
04:00 +20°C° 0.1 mm 2 mps 740 mmHg 92%
05:00 +20°C° 0.1 mm 2 mps 740 mmHg 95%
06:00 +21°C° 0 mm 2 mps 739 mmHg 89%
07:00 +24°C° 0 mm 1 mps 739 mmHg 83%
08:00 +25°C° 0 mm 1 mps 739 mmHg 78%
09:00 +26°C° 0.3 mm 1 mps 739 mmHg 74%
10:00 +27°C° 0.3 mm 1 mps 739 mmHg 70%
11:00 +28°C° 0.3 mm 1 mps 739 mmHg 66%
12:00 +27°C° 1.2 mm 2 mps 738 mmHg 69%
13:00 +27°C° 1.2 mm 3 mps 738 mmHg 71%
14:00 +26°C° 1.2 mm 4 mps 738 mmHg 74%
15:00 +26°C° 0.7 mm 5 mps 738 mmHg 75%
16:00 +25°C° 0.7 mm 5 mps 738 mmHg 77%
17:00 +23°C° 0.7 mm 6 mps 738 mmHg 79%
18:00 +22°C° 0.2 mm 6 mps 738 mmHg 82%
19:00 +21°C° 0.2 mm 6 mps 739 mmHg 85%
20:00 +19°C° 0.2 mm 5 mps 739 mmHg 88%
21:00 +17°C° 0 mm 5 mps 739 mmHg 87%
22:00 +17°C° 0 mm 5 mps 739 mmHg 87%
23:00 +16°C° 0 mm 5 mps 739 mmHg 86%

14 July, Tuesday

Time Temperature Precipitation Wind Pressure Humidity
00:00 +15°C° 0 mm 5 mps 739 mmHg 84%
01:00 +15°C° 0 mm 5 mps 739 mmHg 82%
02:00 +15°C° 0 mm 5 mps 740 mmHg 81%
03:00 +15°C° 0 mm 5 mps 740 mmHg 81%
04:00 +14°C° 0 mm 5 mps 740 mmHg 82%
05:00 +14°C° 0 mm 4 mps 740 mmHg 82%
06:00 +15°C° 0 mm 5 mps 740 mmHg 79%
07:00 +15°C° 0 mm 5 mps 741 mmHg 75%
08:00 +16°C° 0 mm 6 mps 741 mmHg 72%
09:00 +17°C° 0 mm 6 mps 741 mmHg 69%
10:00 +19°C° 0 mm 6 mps 742 mmHg 66%
11:00 +18°C° 0 mm 7 mps 742 mmHg 63%
12:00 +20°C° 0.1 mm 7 mps 742 mmHg 60%
13:00 +21°C° 0.1 mm 7 mps 742 mmHg 57%
14:00 +22°C° 0.1 mm 7 mps 742 mmHg 54%
15:00 +22°C° 0.1 mm 7 mps 742 mmHg 56%
16:00 +21°C° 0.1 mm 7 mps 742 mmHg 57%
17:00 +21°C° 0.1 mm 8 mps 742 mmHg 58%
18:00 +19°C° 0 mm 6 mps 742 mmHg 64%
19:00 +16°C° 0 mm 5 mps 743 mmHg 69%
20:00 +14°C° 0 mm 3 mps 743 mmHg 74%
21:00 +14°C° 0 mm 4 mps 743 mmHg 77%
22:00 +14°C° 0 mm 4 mps 744 mmHg 79%
23:00 +13°C° 0 mm 4 mps 744 mmHg 81%

15 July, Wednesday

Time Temperature Precipitation Wind Pressure Humidity
00:00 +13°C° 0 mm 4 mps 744 mmHg 83%
01:00 +13°C° 0 mm 4 mps 744 mmHg 84%
02:00 +13°C° 0 mm 4 mps 744 mmHg 86%
03:00 +13°C° 0 mm 4 mps 745 mmHg 86%
04:00 +13°C° 0 mm 4 mps 745 mmHg 86%
05:00 +13°C° 0 mm 3 mps 745 mmHg 87%
06:00 +15°C° 0 mm 4 mps 745 mmHg 80%
07:00 +18°C° 0 mm 4 mps 745 mmHg 73%
08:00 +20°C° 0 mm 4 mps 746 mmHg 66%
09:00 +21°C° 0 mm 4 mps 746 mmHg 61%
10:00 +22°C° 0 mm 4 mps 746 mmHg 56%
11:00 +23°C° 0 mm 4 mps 746 mmHg 52%
12:00 +25°C° 0 mm 5 mps 746 mmHg 50%
13:00 +25°C° 0 mm 5 mps 746 mmHg 49%
14:00 +25°C° 0 mm 5 mps 746 mmHg 48%
15:00 +25°C° 0 mm 5 mps 746 mmHg 50%
16:00 +25°C° 0 mm 5 mps 746 mmHg 52%
17:00 +23°C° 0 mm 5 mps 746 mmHg 54%
18:00 +21°C° 0.1 mm 4 mps 746 mmHg 60%
19:00 +19°C° 0.1 mm 3 mps 746 mmHg 67%
20:00 +17°C° 0.1 mm 2 mps 746 mmHg 73%
21:00 +17°C° 0 mm 2 mps 746 mmHg 75%
22:00 +16°C° 0 mm 2 mps 746 mmHg 78%
23:00 +15°C° 0 mm 1 mps 746 mmHg 80%
Show more